| time (UTC) | temp F | wind direction | speed MPH | gust MPH | rain 1hr in | rain 24hr in | rain mn in | humidity % | barometer mb |
| 20260904015753 | 79 | 135 | 14.0 | 16.0 | 0.00 | 0.00 | 0.00 | 44 | 1011.3 |
| 20260904015248 | 78 | 133 | 10.0 | 16.0 | 0.00 | 0.00 | 0.00 | 49 | 1011.2 |
| 20260904014747 | 78 | 150 | 13.0 | 17.0 | 0.00 | 0.00 | 0.00 | 50 | 1011.6 |
| 20260904014242 | 79 | 142 | 11.0 | 20.0 | 0.00 | 0.00 | 0.00 | 47 | 1011.6 |
| 20260904013738 | 80 | 143 | 17.0 | 22.0 | 0.00 | 0.00 | 0.00 | 46 | 1011.5 |
| 20260904013234 | 79 | 130 | 11.0 | 14.0 | 0.00 | 0.00 | 0.00 | 47 | 1011.3 |
| 20260904012729 | 78 | 142 | 6.0 | 12.0 | 0.00 | 0.00 | 0.00 | 51 | 1011.7 |
| 20260904012229 | 79 | 138 | 9.0 | 13.0 | 0.00 | 0.00 | 0.00 | 50 | 1011.7 |
| 20260904011728 | 78 | 138 | 12.0 | 14.0 | 0.00 | 0.00 | 0.00 | 51 | 1011.6 |
| 20260904011224 | 78 | 127 | 9.0 | 12.0 | 0.00 | 0.00 | 0.00 | 49 | 1011.6 |
| 20260904010718 | 77 | 141 | 13.0 | 20.0 | 0.00 | 0.00 | 0.00 | 54 | 1011.7 |
| 20260904010215 | 77 | 136 | 7.0 | 22.0 | 0.00 | 0.00 | 0.00 | 58 | 1011.8 |
| 20260904005710 | 77 | 129 | 17.0 | 25.0 | 0.00 | 0.00 | 0.00 | 58 | 1011.8 |
| 20260904005206 | 77 | 132 | 16.0 | 20.0 | 0.00 | 0.00 | 0.00 | 56 | 1011.9 |
| 20260904004701 | 78 | 157 | 9.0 | 15.0 | 0.00 | 0.00 | 0.00 | 56 | 1011.8 |
| 20260904004201 | 79 | 179 | 9.0 | 20.0 | 0.00 | 0.00 | 0.00 | 54 | 1012.3 |
| 20260904003651 | 80 | 157 | 11.0 | 17.0 | 0.00 | 0.00 | 0.00 | 50 | 1012.0 |
| 20260904003147 | 79 | 163 | 7.0 | 11.0 | 0.00 | 0.00 | 0.00 | 52 | 1012.2 |
| 20260904002643 | 80 | 141 | 16.0 | 22.0 | 0.00 | 0.00 | 0.00 | 49 | 1012.1 |
| 20260904002138 | 80 | 150 | 7.0 | 16.0 | 0.00 | 0.00 | 0.00 | 48 | 1011.9 |
| 20260904001633 | 79 | 153 | 9.0 | 16.0 | 0.00 | 0.00 | 0.00 | 52 | 1011.8 |
| 20260904001132 | 79 | 136 | 7.0 | 15.0 | 0.00 | 0.00 | 0.00 | 52 | 1011.7 |
| 20260904000627 | 79 | 129 | 11.0 | 18.0 | 0.00 | 0.00 | 0.00 | 53 | 1011.7 |
| 20260904000123 | 80 | 125 | 14.0 | 19.0 | 0.00 | 0.00 | 0.00 | 52 | 1011.6 |
| 20260903235622 | 79 | 115 | 12.0 | 16.0 | 0.00 | 0.00 | 0.00 | 54 | 1011.5 |
| 20260903235119 | 80 | 126 | 12.0 | 19.0 | 0.00 | 0.00 | 0.00 | 53 | 1011.5 |
| 20260903234613 | 80 | 115 | 15.0 | 21.0 | 0.00 | 0.00 | 0.00 | 52 | 1011.7 |
| 20260903234109 | 81 | 125 | 15.0 | 22.0 | 0.00 | 0.00 | 0.00 | 51 | 1011.5 |
| 20260903233605 | 82 | 114 | 16.0 | 21.0 | 0.00 | 0.00 | 0.00 | 46 | 1011.8 |
| 20260903233101 | 82 | 128 | 21.0 | 23.0 | 0.00 | 0.00 | 0.00 | 47 | 1011.8 |
| 20260903232555 | 81 | 126 | 12.0 | 21.0 | 0.00 | 0.00 | 0.00 | 52 | 1011.6 |
| 20260903232051 | 80 | 109 | 11.0 | 22.0 | 0.00 | 0.00 | 0.00 | 60 | 1011.6 |
| 20260903231545 | 80 | 119 | 9.0 | 16.0 | 0.00 | 0.00 | 0.00 | 56 | 1011.7 |
| 20260903231039 | 79 | 112 | 11.0 | 16.0 | 0.00 | 0.00 | 0.00 | 55 | 1011.5 |
| 20260903230536 | 80 | 79 | 9.0 | 14.0 | 0.00 | 0.00 | 0.00 | 58 | 1011.3 |
| 20260903230034 | 80 | 68 | 18.0 | 21.0 | 0.00 | 0.00 | 0.00 | 52 | 1011.2 |
| 20260903225532 | 80 | 110 | 9.0 | 15.0 | 0.00 | 0.00 | 0.00 | 52 | 1011.6 |
| 20260903225028 | 80 | 97 | 13.0 | 14.0 | 0.00 | 0.00 | 0.00 | 55 | 1011.6 |
| 20260903224524 | 79 | 75 | 11.0 | 17.0 | 0.00 | 0.00 | 0.00 | 56 | 1011.6 |
| 20260903224020 | 82 | 57 | 11.0 | 16.0 | 0.00 | 0.00 | 0.00 | 50 | 1011.7 |
| 20260903223519 | 81 | 61 | 13.0 | 20.0 | 0.00 | 0.00 | 0.00 | 50 | 1011.2 |
| 20260903223018 | 79 | 39 | 12.0 | 14.0 | 0.00 | 0.00 | 0.00 | 55 | 1011.3 |
| 20260903222513 | 80 | 50 | 11.0 | 14.0 | 0.00 | 0.00 | 0.00 | 54 | 1011.5 |
| 20260903222012 | 80 | 12 | 9.0 | 12.0 | 0.00 | 0.00 | 0.00 | 50 | 1011.2 |
| 20260903221508 | 81 | 5 | 8.0 | 12.0 | 0.00 | 0.00 | 0.00 | 53 | 1011.0 |
| 20260903221005 | 86 | 340 | 7.0 | 16.0 | 0.00 | 0.00 | 0.00 | 42 | 1011.0 |
| 20260903220459 | 90 | 7 | 14.0 | 17.0 | 0.00 | 0.00 | 0.00 | 32 | 1010.7 |
| 20260903215956 | 92 | 316 | 8.0 | 15.0 | 0.00 | 0.00 | 0.00 | 30 | 1010.5 |
| 20260903215453 | 93 | 285 | 6.0 | 12.0 | 0.00 | 0.00 | 0.00 | 29 | 1010.7 |
| 20260903214951 | 95 | 244 | 12.0 | 13.0 | 0.00 | 0.00 | 0.00 | 26 | 1010.5 |
| 20260903214447 | 96 | 283 | 7.0 | 9.0 | 0.00 | 0.00 | 0.00 | 25 | 1010.3 |
| 20260903213941 | 96 | 337 | 2.0 | 4.0 | 0.00 | 0.00 | 0.00 | 26 | 1010.5 |
| 20260903213437 | 96 | 322 | 2.0 | 5.0 | 0.00 | 0.00 | 0.00 | 26 | 1010.5 |
| 20260903212932 | 97 | 297 | 2.0 | 5.0 | 0.00 | 0.00 | 0.00 | 25 | 1010.5 |
| 20260903212428 | 100 | 323 | 4.0 | 9.0 | 0.00 | 0.00 | 0.00 | 22 | 1010.6 |
| 20260903211922 | 100 | 116 | 4.0 | 6.0 | 0.00 | 0.00 | 0.00 | 22 | 1010.7 |
| 20260903211418 | 98 | 174 | 4.0 | 7.0 | 0.00 | 0.00 | 0.00 | 24 | 1010.6 |
| 20260903210914 | 98 | 173 | 3.0 | 11.0 | 0.00 | 0.00 | 0.00 | 24 | 1010.5 |
| 20260903210414 | 98 | 229 | 7.0 | 10.0 | 0.00 | 0.00 | 0.00 | 22 | 1010.6 |
| 20260903205909 | 98 | 130 | 7.0 | 10.0 | 0.00 | 0.00 | 0.00 | 23 | 1010.6 |
| 20260903205409 | 98 | 171 | 4.0 | 6.0 | 0.00 | 0.00 | 0.00 | 24 | 1010.8 |
| 20260903204903 | 98 | 235 | 0.0 | 5.0 | 0.00 | 0.00 | 0.00 | 24 | 1010.8 |
| 20260903204359 | 100 | 202 | 7.0 | 13.0 | 0.00 | 0.00 | 0.00 | 23 | 1011.1 |
| 20260903203855 | 100 | 177 | 7.0 | 15.0 | 0.00 | 0.00 | 0.00 | 22 | 1010.7 |
| 20260903203350 | 99 | 127 | 8.0 | 11.0 | 0.00 | 0.00 | 0.00 | 23 | 1011.0 |
| 20260903202849 | 98 | 143 | 4.0 | 10.0 | 0.00 | 0.00 | 0.00 | 24 | 1010.8 |
| 20260903202346 | 98 | 104 | 2.0 | 9.0 | 0.00 | 0.00 | 0.00 | 23 | 1011.0 |
| 20260903201846 | 99 | 138 | 7.0 | 13.0 | 0.00 | 0.00 | 0.00 | 24 | 1011.0 |
| 20260903201341 | 100 | 157 | 3.0 | 7.0 | 0.00 | 0.00 | 0.00 | 23 | 1011.3 |
| 20260903200839 | 100 | 135 | 7.0 | 13.0 | 0.00 | 0.00 | 0.00 | 23 | 1011.3 |
| 20260903200335 | 100 | 229 | 7.0 | 9.0 | 0.00 | 0.00 | 0.00 | 23 | 1011.2 |
| 20260903195830 | 99 | 244 | 8.0 | 13.0 | 0.00 | 0.00 | 0.00 | 25 | 1011.5 |
| 20260903195326 | 100 | 230 | 11.0 | 17.0 | 0.00 | 0.00 | 0.00 | 24 | 1011.5 |
| 20260903194821 | 101 | 211 | 6.0 | 10.0 | 0.00 | 0.00 | 0.00 | 23 | 1011.6 |
| 20260903194317 | 100 | 217 | 5.0 | 5.0 | 0.00 | 0.00 | 0.00 | 24 | 1011.6 |
| 20260903193812 | 100 | 217 | 6.0 | 13.0 | 0.00 | 0.00 | 0.00 | 24 | 1011.8 |
| 20260903193308 | 100 | 217 | 5.0 | 9.0 | 0.00 | 0.00 | 0.00 | 23 | 1011.8 |
| 20260903192803 | 100 | 255 | 3.0 | 4.0 | 0.00 | 0.00 | 0.00 | 23 | 1011.7 |
| 20260903192259 | 99 | 224 | 1.0 | 7.0 | 0.00 | 0.00 | 0.00 | 23 | 1011.9 |
| 20260903191755 | 99 | 229 | 14.0 | 16.0 | 0.00 | 0.00 | 0.00 | 24 | 1012.0 |
| 20260903191250 | 100 | 144 | 3.0 | 5.0 | 0.00 | 0.00 | 0.00 | 23 | 1012.0 |
| 20260903190745 | 98 | 262 | 2.0 | 7.0 | 0.00 | 0.00 | 0.00 | 25 | 1012.2 |
| 20260903190245 | 99 | 219 | 8.0 | 12.0 | 0.00 | 0.00 | 0.00 | 25 | 1012.2 |
| 20260903185740 | 98 | 180 | 4.0 | 11.0 | 0.00 | 0.00 | 0.00 | 24 | 1012.5 |
| 20260903185239 | 98 | 221 | 5.0 | 14.0 | 0.00 | 0.00 | 0.00 | 24 | 1012.5 |
| 20260903184736 | 98 | 137 | 2.0 | 7.0 | 0.00 | 0.00 | 0.00 | 24 | 1012.7 |
| 20260903184231 | 98 | 204 | 6.0 | 11.0 | 0.00 | 0.00 | 0.00 | 25 | 1012.3 |
| 20260903183727 | 97 | 215 | 7.0 | 10.0 | 0.00 | 0.00 | 0.00 | 25 | 1012.6 |
| 20260903183221 | 97 | 243 | 6.0 | 14.0 | 0.00 | 0.00 | 0.00 | 25 | 1012.8 |
| 20260903182720 | 97 | 220 | 8.0 | 10.0 | 0.00 | 0.00 | 0.00 | 25 | 1012.9 |
| 20260903182215 | 97 | 228 | 9.0 | 15.0 | 0.00 | 0.00 | 0.00 | 26 | 1013.0 |
| 20260903181714 | 97 | 198 | 5.0 | 8.0 | 0.00 | 0.00 | 0.00 | 26 | 1012.9 |
| 20260903181209 | 97 | 208 | 6.0 | 12.0 | 0.00 | 0.00 | 0.00 | 26 | 1012.8 |
| 20260903180704 | 96 | 229 | 5.0 | 14.0 | 0.00 | 0.00 | 0.00 | 27 | 1013.2 |
| 20260903180158 | 96 | 228 | 9.0 | 16.0 | 0.00 | 0.00 | 0.00 | 27 | 1012.9 |
| 20260903175657 | 96 | 226 | 14.0 | 16.0 | 0.00 | 0.00 | 0.00 | 28 | 1013.1 |
| 20260903175157 | 96 | 210 | 7.0 | 11.0 | 0.00 | 0.00 | 0.00 | 27 | 1013.1 |
| 20260903174651 | 96 | 248 | 9.0 | 19.0 | 0.00 | 0.00 | 0.00 | 28 | 1013.1 |
| 20260903174146 | 96 | 230 | 9.0 | 17.0 | 0.00 | 0.00 | 0.00 | 28 | 1013.2 |
| 20260903173641 | 96 | 238 | 7.0 | 9.0 | 0.00 | 0.00 | 0.00 | 30 | 1013.6 |
| 20260903173137 | 96 | 228 | 7.0 | 11.0 | 0.00 | 0.00 | 0.00 | 28 | 1013.2 |
| 20260903172632 | 95 | 238 | 10.0 | 15.0 | 0.00 | 0.00 | 0.00 | 29 | 1013.5 |
| 20260903172127 | 95 | 215 | 8.0 | 18.0 | 0.00 | 0.00 | 0.00 | 29 | 1013.5 |
| 20260903171626 | 94 | 201 | 6.0 | 15.0 | 0.00 | 0.00 | 0.00 | 29 | 1013.5 |
| 20260903171123 | 94 | 216 | 11.0 | 19.0 | 0.00 | 0.00 | 0.00 | 29 | 1013.5 |
| 20260903170621 | 94 | 222 | 10.0 | 17.0 | 0.00 | 0.00 | 0.00 | 29 | 1013.6 |
| 20260903170117 | 94 | 220 | 16.0 | 20.0 | 0.00 | 0.00 | 0.00 | 29 | 1013.6 |
| 20260903165615 | 93 | 222 | 16.0 | 19.0 | 0.00 | 0.00 | 0.00 | 29 | 1013.3 |
| 20260903165110 | 93 | 226 | 8.0 | 18.0 | 0.00 | 0.00 | 0.00 | 30 | 1013.5 |
| 20260903164605 | 93 | 218 | 8.0 | 17.0 | 0.00 | 0.00 | 0.00 | 30 | 1013.6 |
| 20260903164101 | 93 | 228 | 17.0 | 24.0 | 0.00 | 0.00 | 0.00 | 30 | 1013.6 |
| 20260903163555 | 93 | 221 | 13.0 | 15.0 | 0.00 | 0.00 | 0.00 | 31 | 1013.7 |
| 20260903163051 | 92 | 226 | 12.0 | 20.0 | 0.00 | 0.00 | 0.00 | 32 | 1013.6 |
| 20260903162547 | 92 | 225 | 13.0 | 19.0 | 0.00 | 0.00 | 0.00 | 31 | 1013.5 |
| 20260903162043 | 92 | 245 | 15.0 | 17.0 | 0.00 | 0.00 | 0.00 | 32 | 1013.3 |
| 20260903161538 | 91 | 209 | 8.0 | 13.0 | 0.00 | 0.00 | 0.00 | 34 | 1013.6 |
| 20260903161034 | 90 | 227 | 7.0 | 15.0 | 0.00 | 0.00 | 0.00 | 37 | 1013.9 |
| 20260903160533 | 89 | 223 | 11.0 | 17.0 | 0.00 | 0.00 | 0.00 | 36 | 1013.7 |
| 20260903160027 | 89 | 233 | 9.0 | 15.0 | 0.00 | 0.00 | 0.00 | 38 | 1013.9 |
| 20260903155526 | 88 | 236 | 9.0 | 14.0 | 0.00 | 0.00 | 0.00 | 37 | 1013.9 |
| 20260903155022 | 87 | 222 | 12.0 | 14.0 | 0.00 | 0.00 | 0.00 | 38 | 1013.8 |
| 20260903154518 | 87 | 220 | 10.0 | 17.0 | 0.00 | 0.00 | 0.00 | 38 | 1013.7 |
| 20260903154009 | 86 | 235 | 8.0 | 14.0 | 0.00 | 0.00 | 0.00 | 39 | 1013.9 |
| 20260903153503 | 86 | 225 | 15.0 | 19.0 | 0.00 | 0.00 | 0.00 | 39 | 1013.7 |
| 20260903152959 | 86 | 226 | 13.0 | 15.0 | 0.00 | 0.00 | 0.00 | 40 | 1013.9 |
| 20260903152454 | 85 | 239 | 9.0 | 15.0 | 0.00 | 0.00 | 0.00 | 40 | 1013.9 |
| 20260903151950 | 84 | 233 | 10.0 | 15.0 | 0.00 | 0.00 | 0.00 | 41 | 1013.8 |
| 20260903151444 | 84 | 216 | 12.0 | 19.0 | 0.00 | 0.00 | 0.00 | 41 | 1014.0 |
| 20260903150939 | 84 | 239 | 13.0 | 16.0 | 0.00 | 0.00 | 0.00 | 42 | 1014.0 |
| 20260903150434 | 83 | 225 | 13.0 | 18.0 | 0.00 | 0.00 | 0.00 | 42 | 1014.0 |
| 20260903145928 | 82 | 226 | 7.0 | 17.0 | 0.00 | 0.00 | 0.00 | 43 | 1013.8 |
| 20260903145424 | 82 | 222 | 13.0 | 18.0 | 0.00 | 0.00 | 0.00 | 43 | 1013.8 |
| 20260903144924 | 82 | 223 | 9.0 | 13.0 | 0.00 | 0.00 | 0.00 | 44 | 1013.9 |
| 20260903144418 | 81 | 228 | 12.0 | 15.0 | 0.00 | 0.00 | 0.00 | 44 | 1013.9 |
| 20260903143914 | 81 | 228 | 11.0 | 12.0 | 0.00 | 0.00 | 0.00 | 44 | 1013.9 |
| 20260903143410 | 80 | 240 | 9.0 | 14.0 | 0.00 | 0.00 | 0.00 | 45 | 1013.9 |
| 20260903142905 | 80 | 227 | 11.0 | 13.0 | 0.00 | 0.00 | 0.00 | 45 | 1013.6 |
| 20260903142355 | 79 | 206 | 9.0 | 10.0 | 0.00 | 0.00 | 0.00 | 46 | 1014.1 |
| 20260903141851 | 77 | 206 | 4.0 | 9.0 | 0.00 | 0.00 | 0.00 | 50 | 1013.8 |
| 20260903141347 | 77 | 203 | 4.0 | 6.0 | 0.00 | 0.00 | 0.00 | 50 | 1013.9 |
| 20260903140842 | 76 | 197 | 4.0 | 6.0 | 0.00 | 0.00 | 0.00 | 50 | 1013.9 |
| 20260903140337 | 76 | 204 | 7.0 | 8.0 | 0.00 | 0.00 | 0.00 | 50 | 1014.0 |
| 20260903135833 | 75 | 192 | 4.0 | 8.0 | 0.00 | 0.00 | 0.00 | 50 | 1014.0 |
| 20260903135328 | 75 | 195 | 7.0 | 7.0 | 0.00 | 0.00 | 0.00 | 50 | 1013.9 |
| 20260903134827 | 75 | 201 | 5.0 | 8.0 | 0.00 | 0.00 | 0.00 | 49 | 1013.9 |
| 20260903134322 | 75 | 217 | 5.0 | 10.0 | 0.00 | 0.00 | 0.00 | 50 | 1014.1 |
| 20260903133819 | 75 | 199 | 4.0 | 6.0 | 0.00 | 0.00 | 0.00 | 50 | 1013.9 |
| 20260903133316 | 75 | 199 | 4.0 | 7.0 | 0.00 | 0.00 | 0.00 | 51 | 1013.9 |
| 20260903132810 | 74 | 224 | 1.0 | 6.0 | 0.00 | 0.00 | 0.00 | 52 | 1013.9 |
| 20260903132306 | 74 | 137 | 2.0 | 4.0 | 0.00 | 0.00 | 0.00 | 53 | 1013.9 |
| 20260903131801 | 73 | 142 | 2.0 | 4.0 | 0.00 | 0.00 | 0.00 | 54 | 1013.5 |
| 20260903131300 | 73 | 121 | 3.0 | 5.0 | 0.00 | 0.00 | 0.00 | 56 | 1013.8 |
| 20260903130755 | 72 | 117 | 3.0 | 5.0 | 0.00 | 0.00 | 0.00 | 57 | 1013.6 |
| 20260903130250 | 71 | 151 | 3.0 | 4.0 | 0.00 | 0.00 | 0.00 | 56 | 1013.7 |
| 20260903125748 | 71 | 111 | 2.0 | 3.0 | 0.00 | 0.00 | 0.00 | 57 | 1013.7 |
| 20260903125244 | 70 | 143 | 3.0 | 4.0 | 0.00 | 0.00 | 0.00 | 57 | 1013.8 |
| 20260903124743 | 69 | 106 | 3.0 | 5.0 | 0.00 | 0.00 | 0.00 | 59 | 1013.7 |
| 20260903124239 | 69 | 122 | 3.0 | 6.0 | 0.00 | 0.00 | 0.00 | 59 | 1013.6 |
| 20260903123737 | 69 | 135 | 3.0 | 4.0 | 0.00 | 0.00 | 0.00 | 58 | 1013.5 |
| 20260903123237 | 68 | 185 | 2.0 | 3.0 | 0.00 | 0.00 | 0.00 | 60 | 1013.5 |
| 20260903122735 | 67 | 21 | 0.0 | 3.0 | 0.00 | 0.00 | 0.00 | 62 | 1013.2 |
| 20260903122230 | 67 | 92 | 2.0 | 3.0 | 0.00 | 0.00 | 0.00 | 64 | 1013.5 |
| 20260903121728 | 68 | 91 | 2.0 | 3.0 | 0.00 | 0.00 | 0.00 | 62 | 1013.3 |
| 20260903121225 | 68 | 108 | 2.0 | 3.0 | 0.00 | 0.00 | 0.00 | 60 | 1013.5 |
| 20260903120725 | 69 | 125 | 2.0 | 3.0 | 0.00 | 0.00 | 0.00 | 59 | 1013.5 |
| 20260903120218 | 69 | 182 | 3.0 | 4.0 | 0.00 | 0.00 | 0.00 | 59 | 1013.5 |
| 20260903115717 | 69 | 195 | 0.0 | 3.0 | 0.00 | 0.00 | 0.00 | 60 | 1013.5 |
| 20260903115212 | 69 | 195 | 3.0 | 4.0 | 0.00 | 0.00 | 0.00 | 59 | 1013.5 |
| 20260903114706 | 69 | 226 | 3.0 | 4.0 | 0.00 | 0.00 | 0.00 | 58 | 1013.7 |
| 20260903114202 | 69 | 176 | 2.0 | 5.0 | 0.00 | 0.00 | 0.00 | 58 | 1013.6 |
| 20260903113658 | 69 | 182 | 3.0 | 5.0 | 0.00 | 0.00 | 0.00 | 58 | 1013.2 |
| 20260903113154 | 69 | 154 | 2.0 | 3.0 | 0.00 | 0.00 | 0.00 | 58 | 1013.2 |
| 20260903112650 | 69 | 162 | 4.0 | 4.0 | 0.00 | 0.00 | 0.00 | 58 | 1013.2 |
| 20260903112149 | 70 | 120 | 2.0 | 3.0 | 0.00 | 0.00 | 0.00 | 57 | 1013.5 |
| 20260903111648 | 70 | 190 | 2.0 | 4.0 | 0.00 | 0.00 | 0.00 | 57 | 1013.0 |
| 20260903111144 | 70 | 164 | 3.0 | 5.0 | 0.00 | 0.00 | 0.00 | 57 | 1013.3 |
| 20260903110640 | 70 | 184 | 3.0 | 7.0 | 0.00 | 0.00 | 0.00 | 57 | 1013.5 |
| 20260903110136 | 70 | 203 | 4.0 | 6.0 | 0.00 | 0.00 | 0.00 | 57 | 1013.1 |
| 20260903105624 | 70 | 187 | 2.0 | 7.0 | 0.00 | 0.00 | 0.00 | 57 | 1013.2 |
| 20260903105120 | 70 | 162 | 3.0 | 7.0 | 0.00 | 0.00 | 0.00 | 57 | 1013.3 |
| 20260903104614 | 70 | 190 | 3.0 | 6.0 | 0.00 | 0.00 | 0.00 | 58 | 1013.3 |
| 20260903104110 | 70 | 175 | 3.0 | 5.0 | 0.00 | 0.00 | 0.00 | 58 | 1013.6 |
| 20260903103605 | 70 | 167 | 4.0 | 5.0 | 0.00 | 0.00 | 0.00 | 58 | 1013.2 |
| 20260903103101 | 70 | 197 | 3.0 | 4.0 | 0.00 | 0.00 | 0.00 | 59 | 1013.3 |
| 20260903102556 | 70 | 214 | 3.0 | 5.0 | 0.00 | 0.00 | 0.00 | 58 | 1013.5 |
| 20260903102055 | 70 | 173 | 5.0 | 5.0 | 0.00 | 0.00 | 0.00 | 58 | 1013.6 |
| 20260903101550 | 70 | 181 | 4.0 | 5.0 | 0.00 | 0.00 | 0.00 | 58 | 1013.6 |
| 20260903101045 | 70 | 189 | 3.0 | 5.0 | 0.00 | 0.00 | 0.00 | 58 | 1013.5 |
| 20260903100540 | 71 | 155 | 2.0 | 6.0 | 0.00 | 0.00 | 0.00 | 57 | 1013.6 |
| 20260903100038 | 71 | 165 | 2.0 | 6.0 | 0.00 | 0.00 | 0.00 | 57 | 1013.3 |
| 20260903095537 | 71 | 168 | 2.0 | 5.0 | 0.00 | 0.00 | 0.00 | 56 | 1013.7 |
| 20260903095031 | 72 | 189 | 4.0 | 6.0 | 0.00 | 0.00 | 0.00 | 55 | 1013.6 |
| 20260903094526 | 72 | 171 | 3.0 | 6.0 | 0.00 | 0.00 | 0.00 | 54 | 1013.3 |
| 20260903094022 | 73 | 182 | 5.0 | 6.0 | 0.00 | 0.00 | 0.00 | 53 | 1013.7 |
| 20260903093522 | 73 | 188 | 4.0 | 8.0 | 0.00 | 0.00 | 0.00 | 53 | 1013.7 |
| 20260903093017 | 73 | 207 | 3.0 | 7.0 | 0.00 | 0.00 | 0.00 | 52 | 1013.7 |
| 20260903092516 | 73 | 188 | 3.0 | 8.0 | 0.00 | 0.00 | 0.00 | 52 | 1013.8 |
| 20260903092011 | 74 | 178 | 8.0 | 10.0 | 0.00 | 0.00 | 0.00 | 52 | 1013.8 |
| 20260903091509 | 73 | 176 | 5.0 | 9.0 | 0.00 | 0.00 | 0.00 | 52 | 1014.0 |
| 20260903091004 | 73 | 164 | 5.0 | 8.0 | 0.00 | 0.00 | 0.00 | 52 | 1013.9 |
| 20260903090500 | 74 | 148 | 3.0 | 10.0 | 0.00 | 0.00 | 0.00 | 51 | 1013.9 |
| 20260903085958 | 74 | 182 | 4.0 | 8.0 | 0.00 | 0.00 | 0.00 | 51 | 1013.8 |
| 20260903085456 | 74 | 142 | 3.0 | 7.0 | 0.00 | 0.00 | 0.00 | 51 | 1013.7 |
| 20260903084953 | 74 | 167 | 3.0 | 9.0 | 0.00 | 0.00 | 0.00 | 51 | 1013.7 |
| 20260903084450 | 74 | 196 | 3.0 | 8.0 | 0.00 | 0.00 | 0.00 | 50 | 1013.7 |
| 20260903083945 | 74 | 184 | 5.0 | 7.0 | 0.00 | 0.00 | 0.00 | 50 | 1013.8 |
| 20260903083442 | 74 | 184 | 4.0 | 7.0 | 0.00 | 0.00 | 0.00 | 50 | 1013.6 |
| 20260903082941 | 74 | 148 | 5.0 | 8.0 | 0.00 | 0.00 | 0.00 | 50 | 1013.8 |
| 20260903082436 | 74 | 161 | 9.0 | 11.0 | 0.00 | 0.00 | 0.00 | 50 | 1013.8 |
| 20260903081930 | 74 | 163 | 4.0 | 8.0 | 0.00 | 0.00 | 0.00 | 50 | 1013.7 |
| 20260903081426 | 73 | 176 | 5.0 | 8.0 | 0.00 | 0.00 | 0.00 | 51 | 1013.7 |
| 20260903080922 | 73 | 181 | 5.0 | 6.0 | 0.00 | 0.00 | 0.00 | 51 | 1013.9 |
| 20260903080418 | 73 | 161 | 4.0 | 5.0 | 0.00 | 0.00 | 0.00 | 52 | 1013.9 |
| 20260903075913 | 73 | 173 | 5.0 | 5.0 | 0.00 | 0.00 | 0.00 | 51 | 1013.7 |
| 20260903075409 | 73 | 165 | 4.0 | 5.0 | 0.00 | 0.00 | 0.00 | 51 | 1013.7 |
| 20260903074903 | 73 | 157 | 3.0 | 7.0 | 0.00 | 0.00 | 0.00 | 50 | 1013.6 |
| 20260903074357 | 74 | 152 | 3.0 | 6.0 | 0.00 | 0.00 | 0.00 | 50 | 1013.7 |
| 20260903073853 | 74 | 159 | 4.0 | 7.0 | 0.00 | 0.00 | 0.00 | 49 | 1013.8 |
| 20260903073347 | 74 | 144 | 5.0 | 7.0 | 0.00 | 0.00 | 0.00 | 49 | 1013.8 |
| 20260903072844 | 74 | 150 | 3.0 | 7.0 | 0.00 | 0.00 | 0.00 | 50 | 1013.9 |
| 20260903072339 | 74 | 130 | 4.0 | 6.0 | 0.00 | 0.00 | 0.00 | 50 | 1013.8 |
| 20260903071836 | 74 | 148 | 5.0 | 6.0 | 0.00 | 0.00 | 0.00 | 49 | 1013.6 |
| 20260903071332 | 75 | 155 | 4.0 | 7.0 | 0.00 | 0.00 | 0.00 | 49 | 1013.9 |
| 20260903070827 | 75 | 170 | 4.0 | 8.0 | 0.00 | 0.00 | 0.00 | 48 | 1013.9 |
| 20260903070322 | 75 | 160 | 6.0 | 10.0 | 0.00 | 0.00 | 0.00 | 48 | 1013.8 |
| 20260903065822 | 75 | 223 | 2.0 | 8.0 | 0.00 | 0.00 | 0.00 | 48 | 1013.8 |
| 20260903065316 | 75 | 170 | 4.0 | 7.0 | 0.00 | 0.00 | 0.00 | 47 | 1013.7 |
| 20260903064815 | 75 | 157 | 4.0 | 7.0 | 0.00 | 0.00 | 0.00 | 47 | 1013.7 |
| 20260903064311 | 76 | 191 | 4.0 | 10.0 | 0.00 | 0.00 | 0.00 | 46 | 1013.7 |
| 20260903063806 | 76 | 153 | 5.0 | 8.0 | 0.00 | 0.00 | 0.00 | 46 | 1013.6 |
| 20260903063300 | 76 | 165 | 3.0 | 8.0 | 0.00 | 0.00 | 0.00 | 47 | 1013.9 |
| 20260903062752 | 76 | 129 | 2.0 | 7.0 | 0.00 | 0.00 | 0.00 | 47 | 1013.7 |
| 20260903062250 | 76 | 194 | 3.0 | 8.0 | 0.00 | 0.00 | 0.00 | 46 | 1013.8 |
| 20260903061748 | 76 | 124 | 4.0 | 8.0 | 0.00 | 0.00 | 0.00 | 47 | 1013.9 |
| 20260903061246 | 76 | 149 | 6.0 | 9.0 | 0.00 | 0.00 | 0.00 | 47 | 1013.8 |
| 20260903060741 | 76 | 164 | 4.0 | 5.0 | 0.00 | 0.00 | 0.00 | 48 | 1013.7 |
| 20260903060241 | 76 | 170 | 6.0 | 6.0 | 0.00 | 0.00 | 0.00 | 48 | 1013.7 |
| 20260903055733 | 77 | 153 | 6.0 | 7.0 | 0.00 | 0.00 | 0.00 | 47 | 1013.8 |
| 20260903055232 | 77 | 179 | 3.0 | 10.0 | 0.00 | 0.00 | 0.00 | 47 | 1013.9 |
| 20260903054727 | 77 | 182 | 5.0 | 7.0 | 0.00 | 0.00 | 0.00 | 48 | 1013.6 |
| 20260903054222 | 77 | 180 | 5.0 | 6.0 | 0.00 | 0.00 | 0.00 | 49 | 1013.6 |
| 20260903053719 | 77 | 170 | 4.0 | 6.0 | 0.00 | 0.00 | 0.00 | 50 | 1013.5 |
| 20260903053219 | 77 | 180 | 4.0 | 9.0 | 0.00 | 0.00 | 0.00 | 50 | 1013.6 |
| 20260903052714 | 77 | 173 | 5.0 | 7.0 | 0.00 | 0.00 | 0.00 | 50 | 1013.5 |
| 20260903052210 | 77 | 148 | 6.0 | 6.0 | 0.00 | 0.00 | 0.00 | 49 | 1013.7 |
| 20260903051705 | 78 | 159 | 3.0 | 6.0 | 0.00 | 0.00 | 0.00 | 50 | 1013.5 |
| 20260903051201 | 78 | 169 | 5.0 | 7.0 | 0.00 | 0.00 | 0.00 | 48 | 1013.5 |
| 20260903050656 | 78 | 137 | 3.0 | 8.0 | 0.00 | 0.00 | 0.00 | 47 | 1013.6 |
| 20260903050155 | 78 | 158 | 7.0 | 7.0 | 0.00 | 0.00 | 0.00 | 47 | 1013.6 |
| 20260903045649 | 78 | 141 | 3.0 | 7.0 | 0.00 | 0.00 | 0.00 | 48 | 1013.6 |
| 20260903045140 | 78 | 150 | 4.0 | 8.0 | 0.00 | 0.00 | 0.00 | 49 | 1013.5 |
| 20260903044635 | 78 | 171 | 5.0 | 6.0 | 0.00 | 0.00 | 0.00 | 50 | 1013.3 |
| 20260903044125 | 78 | 177 | 4.0 | 5.0 | 0.00 | 0.00 | 0.00 | 50 | 1013.2 |
| 20260903043621 | 78 | 157 | 5.0 | 5.0 | 0.00 | 0.00 | 0.00 | 50 | 1013.3 |
| 20260903043121 | 79 | 182 | 4.0 | 8.0 | 0.00 | 0.00 | 0.00 | 49 | 1013.1 |
| 20260903042621 | 79 | 151 | 3.0 | 6.0 | 0.00 | 0.00 | 0.00 | 48 | 1013.3 |
| 20260903042116 | 78 | 171 | 3.0 | 7.0 | 0.00 | 0.00 | 0.00 | 49 | 1013.3 |
| 20260903041613 | 79 | 188 | 3.0 | 7.0 | 0.00 | 0.00 | 0.00 | 49 | 1013.5 |
| 20260903041108 | 79 | 170 | 2.0 | 7.0 | 0.00 | 0.00 | 0.00 | 48 | 1013.5 |
| 20260903040607 | 79 | 167 | 3.0 | 9.0 | 0.00 | 0.00 | 0.00 | 48 | 1013.8 |
| 20260903040104 | 79 | 153 | 7.0 | 9.0 | 0.00 | 0.00 | 0.00 | 49 | 1013.3 |
| 20260903035559 | 79 | 138 | 3.0 | 6.0 | 0.00 | 0.00 | 0.00 | 49 | 1013.6 |
| 20260903035055 | 79 | 149 | 3.0 | 6.0 | 0.00 | 0.00 | 0.00 | 48 | 1013.3 |
| 20260903034549 | 80 | 133 | 2.0 | 6.0 | 0.00 | 0.00 | 0.00 | 47 | 1013.6 |
| 20260903034044 | 80 | 156 | 5.0 | 7.0 | 0.00 | 0.00 | 0.00 | 47 | 1013.3 |
| 20260903033539 | 80 | 186 | 3.0 | 6.0 | 0.00 | 0.00 | 0.00 | 47 | 1013.3 |
| 20260903033035 | 80 | 161 | 3.0 | 7.0 | 0.00 | 0.00 | 0.00 | 48 | 1013.7 |
| 20260903032530 | 79 | 137 | 3.0 | 6.0 | 0.00 | 0.00 | 0.00 | 49 | 1013.5 |
| 20260903032025 | 79 | 204 | 3.0 | 5.0 | 0.00 | 0.00 | 0.00 | 49 | 1013.5 |
| 20260903031525 | 80 | 175 | 5.0 | 6.0 | 0.00 | 0.00 | 0.00 | 48 | 1013.6 |
| 20260903031020 | 80 | 153 | 2.0 | 7.0 | 0.00 | 0.00 | 0.00 | 47 | 1013.6 |
| 20260903030515 | 79 | 149 | 3.0 | 6.0 | 0.00 | 0.00 | 0.00 | 48 | 1013.3 |
| 20260903030012 | 80 | 135 | 5.0 | 7.0 | 0.00 | 0.00 | 0.00 | 49 | 1013.0 |
| 20260903025507 | 80 | 150 | 3.0 | 6.0 | 0.00 | 0.00 | 0.00 | 47 | 1013.1 |
| 20260903025003 | 80 | 151 | 3.0 | 7.0 | 0.00 | 0.00 | 0.00 | 48 | 1013.0 |
| 20260903024502 | 80 | 173 | 4.0 | 7.0 | 0.00 | 0.00 | 0.00 | 48 | 1013.1 |
| 20260903023956 | 80 | 192 | 2.0 | 6.0 | 0.00 | 0.00 | 0.00 | 47 | 1013.3 |
| 20260903023452 | 80 | 104 | 4.0 | 6.0 | 0.00 | 0.00 | 0.00 | 48 | 1012.9 |
| 20260903022947 | 80 | 172 | 3.0 | 7.0 | 0.00 | 0.00 | 0.00 | 48 | 1012.9 |
| 20260903022446 | 80 | 136 | 3.0 | 7.0 | 0.00 | 0.00 | 0.00 | 48 | 1013.0 |
| 20260903021944 | 80 | 160 | 4.0 | 8.0 | 0.00 | 0.00 | 0.00 | 49 | 1013.0 |
| 20260903021440 | 79 | 141 | 5.0 | 8.0 | 0.00 | 0.00 | 0.00 | 49 | 1012.8 |
| 20260903020935 | 80 | 140 | 3.0 | 6.0 | 0.00 | 0.00 | 0.00 | 49 | 1012.8 |
| 20260903020430 | 80 | 183 | 3.0 | 7.0 | 0.00 | 0.00 | 0.00 | 48 | 1012.8 |